Skip Page Navigation
NASA JPL Caltech
NASA Logo - Jet Propulsion Laboratory + View the NASA Portal
+ Center for Near-Earth Object Studies
JPL Home Earth Solar System Stars & Galaxies Technology
JPL Solar System Dynamics
BODIES ORBITS EPHEMERIDES TOOLS PHYSICAL DATA DISCOVERY FAQ SITE MAP
IMPORTANT: The SSD Announcement email list is now available. Major changes are coming in the near future, including possible hostname and/or URL changes. To be notified of such changes, subscribe to this email list.

Please visit this page for more details.


JPL Small-Body Database Browser
Search: [ help ]  
390348 (2013 CS133)
Classification: Main-belt Asteroid          SPK-ID: 2390348
Ephemeris | Orbit Diagram | Orbital Elements | Mission Design | Physical Parameters | Discovery Circumstances | Close-Approach Data ]

[ show orbit diagram ]
Orbital Elements at Epoch 2459000.5 (2020-May-31.0) TDB
Reference: JPL 19 (heliocentric ecliptic J2000)
 Element Value Uncertainty (1-sigma)   Units 
e .1143731171303603 4.8483e-08  
a 3.015082399741361 3.599e-08 au
q 2.670238027278055 1.4728e-07 au
i 11.63547407894366 5.4819e-06 deg
node 116.0764915873027 2.6243e-05 deg
peri 254.1232864089823 3.598e-05 deg
M 277.3254959329658 2.7492e-05 deg
tp 2459439.653453971169
(2021-Aug-13.15345397)
0.0001491 TDB
period 1912.261164595966
5.24
3.4239e-05
9.374e-08
d
yr
n .1882588041137483 3.3708e-09 deg/d
Q 3.359926772204668 4.0107e-08 au
  Orbit Determination Parameters
   # obs. used (total)      244  
   data-arc span      6813 days (18.65 yr)  
   first obs. used      2000-09-27  
   last obs. used      2019-05-24  
   planetary ephem.      DE431  
   SB-pert. ephem.      SB431-N16  
   condition code      0  
   norm. resid. RMS      .56124  
   source      ORB  
   producer      Otto Matic  
   solution date      2020-Feb-26 04:32:09  

Additional Information
 Earth MOID = 1.69777 au 
 Jupiter MOID = 2.15759 au 
 T_jup = 3.207 
[ hide covariance matrix ]
Orbital Elements at Epoch 2457316.5 (2015-Oct-21.0) TDB
Reference: JPL 19 (heliocentric ecliptic J2000)
 Element Value Uncertainty (1-sigma)   Units 
e .1160397594105129 4.825e-08  
q 2.661928176831458 1.4626e-07 au
tp 2457536.163761518056
(2016-May-27.66376152)
0.0001375 TDB
node 116.1228404424849 2.6286e-05 deg
peri 255.1633577420018 3.5854e-05 deg
i 11.63038626373319 5.4795e-06 deg
  Orbit Determination Parameters
   # obs. used (total)      244  
   data-arc span      6813 days (18.65 yr)  
   first obs. used      2000-09-27  
   last obs. used      2019-05-24  
   planetary ephem.      DE431  
   SB-pert. ephem.      SB431-N16  
   condition code      0  
   norm. resid. RMS      .56124  
   source      ORB  
   producer      Otto Matic  
   solution date      2020-Feb-26 04:32:09  

Additional Information
 Jupiter MOID = 2.15759 au 
 T_jup = 3.207 
Orbit Covariance (6×6)
  e q tp node peri i
e 2.328102025029103E-15 -6.886148897903057E-15 -7.281041813084272E-13 -4.888723131306894E-15 -9.382260406972777E-14 4.335683357225808E-15
q -6.886148897903057E-15 2.139170578679374E-14 2.936372824959798E-12 1.686770955700264E-14 3.891407956496902E-13 -1.049128014157505E-14
tp -7.281041813084272E-13 2.936372824959798E-12 1.890580808147796E-8 9.434097092826848E-12 3.38840956568127E-9 -1.137166327990862E-12
node -4.888723131306894E-15 1.686770955700264E-14 9.434097092826848E-12 6.90976799420776E-10 -6.746923136063347E-10 5.785463759889762E-13
peri -9.382260406972777E-14 3.891407956496902E-13 3.38840956568127E-9 -6.746923136063347E-10 1.285509639902011E-9 -7.993399931395931E-13
i 4.335683357225808E-15 -1.049128014157505E-14 -1.137166327990862E-12 5.785463759889762E-13 -7.993399931395931E-13 3.002533991073878E-11

Ephemeris | Orbit Diagram | Orbital Elements | Mission Design | Physical Parameters | Discovery Circumstances | Close-Approach Data ]

Physical Parameter Table
Parameter Symbol Value Units Sigma Reference Notes
absolute magnitude H 15.6   n/a MPO437598  

390348 (2013 CS133)          Discovered 2001-Dec-10 by Spacewatch at Kitt Peak
Reference: Last Updated: 2014-03-21

[ show close-approach data ]
Alternate Designations
 2013 CS133 = 2002 AC46 
Ephemeris | Orbit Diagram | Orbital Elements | Mission Design | Physical Parameters | Discovery Circumstances | Close-Approach Data ]
ABOUT SSD CREDITS/AWARDS PRIVACY/COPYRIGHT GLOSSARY LINKS
FirstGov 2020-Mar-31 14:04 UT
(server date/time)  
NASA Home Page
Site Manager:   Ryan S. Park
Webmaster  Alan B. Chamberlin